Temperature
-4 -5 -6 -7 -7 -8 -9 -10 -10 -11 -11 -12 -12 -11 -11 -11 -11 -11 -11 -11 -11 -11 -11 -11 -10 -10 -10 -10 -9 -9 -9 -9 -8 -7 -7 -6 -6 -5 -4 -3 -2 -0 1
-4 -5 -6 -7 -8 -8 -9 -9 -10 -11 -11 -12 -12 -12 -11 -11 -11 -11 -12 -12 -11 -11 -11 -11 -11 -11 -10 -10 -10 -9 -9 -9 -9 -8 -7 -7 -6 -5 -4 -3 -1 -0 1
-4 -5 -6 -7 -8 -8 -9 -9 -10 -11 -11 -12 -12 -12 -12 -11 -11 -12 -12 -12 -12 -12 -12 -12 -11 -11 -11 -10 -10 -10 -10 -9 -9 -9 -8 -7 -6 -5 -4 -3 -2 -0 1
-5 -5 -6 -7 -7 -8 -8 -9 -10 -10 -11 -11 -12 -12 -12 -11 -11 -12 -12 -12 -12 -12 -12 -12 -12 -12 -11 -11 -10 -10 -10 -10 -9 -9 -8 -8 -7 -6 -5 -3 -2 -1 1
-5 -5 -6 -7 -7 -8 -8 -9 -9 -10 -11 -11 -11 -11 -11 -11 -11 -11 -12 -12 -12 -12 -12 -12 -12 -12 -11 -11 -11 -11 -11 -10 -10 -9 -9 -8 -8 -7 -6 -4 -2 -1 1
-5 -5 -6 -6 -7 -8 -8 -9 -9 -10 -10 -11 -11 -11 -11 -11 -11 -11 -11 -12 -12 -12 -12 -13 -12 -12 -12 -11 -11 -11 -11 -11 -11 -10 -10 -10 -9 -8 -7 -5 -4 -1 1
-5 -5 -6 -6 -7 -8 -8 -9 -9 -9 -10 -10 -11 -11 -11 -11 -11 -11 -11 -11 -12 -12 -12 -13 -12 -12 -12 -11 -12 -12 -12 -12 -11 -11 -11 -11 -10 -9 -8 -6 -4 -3 -0
-5 -5 -6 -6 -7 -7 -8 -8 -9 -9 -10 -10 -10 -11 -11 -11 -11 -11 -11 -11 -11 -12 -12 -13 -13 -12 -12 -11 -12 -12 -12 -12 -12 -11 -11 -11 -10 -9 -8 -7 -5 -3 -1
-5 -5 -6 -6 -7 -7 -7 -8 -8 -9 -9 -10 -10 -10 -10 -10 -10 -10 -11 -11 -11 -12 -12 -12 -13 -12 -12 -12 -12 -12 -12 -12 -11 -11 -11 -11 -10 -9 -8 -6 -5 -3 -1
-4 -5 -6 -6 -6 -7 -7 -7 -8 -8 -9 -9 -10 -10 -10 -10 -10 -10 -10 -10 -11 -11 -12 -12 -13 -13 -13 -13 -13 -13 -12 -12 -11 -10 -10 -10 -9 -8 -7 -6 -5 -3 -2
-4 -5 -5 -6 -6 -6 -7 -7 -7 -8 -8 -9 -10 -10 -10 -10 -10 -10 -10 -10 -11 -11 -12 -12 -13 -13 -13 -13 -13 -13 -13 -12 -11 -11 -11 -10 -10 -9 -7 -6 -5 -3 -2
-4 -5 -5 -6 -6 -6 -6 -6 -7 -7 -8 -9 -10 -10 -10 -10 -10 -9 -10 -10 -11 -12 -12 -13 -13 -13 -14 -14 -14 -13 -13 -12 -12 -12 -11 -11 -10 -9 -7 -6 -4 -3 -2
-4 -5 -5 -5 -5 -5 -6 -6 -6 -7 -8 -10 -10 -10 -10 -10 -10 -9 -10 -10 -11 -12 -12 -13 -13 -14 -13 -13 -14 -13 -13 -12 -12 -12 -12 -12 -11 -9 -7 -6 -4 -3 -2
-4 -4 -5 -5 -5 -5 -5 -5 -6 -6 -8 -10 -10 -11 -11 -10 -10 -10 -10 -10 -11 -11 -12 -13 -13 -13 -13 -13 -13 -13 -13 -13 -13 -13 -12 -12 -10 -9 -8 -6 -5 -3 -2
-4 -4 -4 -5 -4 -5 -5 -5 -6 -6 -7 -9 -10 -11 -11 -11 -10 -10 -10 -11 -11 -11 -12 -12 -13 -13 -13 -13 -13 -13 -13 -13 -13 -13 -12 -11 -10 -9 -8 -7 -5 -4 -3
-4 -4 -4 -4 -4 -4 -4 -5 -5 -6 -6 -7 -8 -10 -11 -11 -11 -11 -10 -11 -11 -11 -12 -12 -13 -13 -13 -14 -14 -14 -14 -13 -13 -13 -13 -12 -11 -10 -9 -7 -6 -5 -3
-3 -4 -4 -4 -4 -4 -5 -5 -5 -5 -6 -6 -7 -8 -10 -10 -10 -11 -11 -10 -11 -11 -11 -12 -12 -13 -13 -13 -13 -14 -14 -13 -13 -13 -13 -12 -12 -11 -10 -9 -7 -5 -4
-3 -4 -4 -4 -4 -5 -5 -5 -5 -5 -6 -6 -7 -7 -8 -9 -10 -10 -10 -10 -10 -11 -11 -12 -12 -12 -13 -13 -13 -13 -13 -13 -13 -13 -13 -12 -12 -11 -11 -10 -8 -7 -5
-3 -4 -4 -4 -5 -5 -5 -5 -5 -6 -6 -6 -6 -7 -7 -9 -9 -10 -10 -10 -11 -11 -11 -11 -11 -12 -12 -12 -12 -13 -13 -13 -13 -13 -13 -12 -12 -12 -11 -11 -10 -8 -6
-3 -4 -4 -4 -5 -5 -5 -5 -5 -6 -6 -6 -7 -7 -8 -8 -9 -10 -10 -10 -11 -11 -11 -11 -11 -11 -11 -12 -12 -12 -12 -13 -13 -13 -13 -13 -13 -12 -12 -11 -10 -9 -8
-3 -4 -4 -4 -5 -5 -5 -5 -6 -6 -6 -7 -7 -7 -8 -9 -9 -10 -10 -11 -11 -11 -10 -10 -11 -11 -11 -11 -11 -12 -12 -13 -13 -13 -13 -13 -13 -12 -12 -12 -11 -10 -9
-3 -3 -4 -4 -5 -5 -5 -5 -6 -6 -6 -7 -7 -7 -8 -8 -9 -10 -10 -10 -10 -10 -10 -10 -10 -10 -10 -11 -11 -11 -12 -12 -12 -13 -13 -13 -13 -13 -12 -12 -11 -11 -10
-3 -3 -4 -4 -5 -5 -5 -5 -6 -6 -6 -7 -7 -7 -8 -8 -9 -10 -10 -10 -10 -10 -10 -10 -10 -10 -10 -10 -10 -11 -11 -12 -12 -12 -13 -13 -13 -13 -13 -12 -12 -11 -11
-3 -3 -4 -4 -5 -5 -5 -6 -6 -6 -7 -7 -7 -8 -8 -8 -9 -9 -10 -10 -10 -10 -10 -10 -10 -10 -10 -10 -10 -10 -11 -11 -12 -12 -12 -13 -13 -13 -13 -12 -12 -12 -11
-3 -3 -4 -4 -4 -5 -5 -6 -6 -6 -7 -7 -7 -8 -8 -8 -9 -9 -10 -10 -10 -10 -10 -10 -10 -10 -10 -10 -10 -10 -10 -11 -11 -12 -12 -12 -13 -13 -13 -13 -13 -12 -12
-2 -3 -3 -4 -4 -5 -5 -6 -6 -6 -7 -7 -7 -8 -8 -9 -9 -9 -9 -10 -10 -10 -9 -9 -9 -9 -9 -9 -10 -10 -10 -11 -11 -12 -12 -12 -13 -13 -13 -13 -13 -13 -12
Wind_Speed
6 7 8 9 10 11 10 12 13 14 16 15 16 16 16 16 16 15 15 15 15 15 14 14 14 13 11 10 9 9 9 10 12 14 13 14 15 14 13 12 12 12 11
6 7 8 9 10 10 11 12 13 14 15 15 16 15 15 15 15 15 15 15 14 15 15 15 16 14 15 12 11 11 10 11 12 15 14 13 14 14 13 13 11 10 10
6 7 8 9 10 11 11 12 13 13 14 15 15 15 15 15 15 13 12 13 13 13 14 15 15 16 16 14 14 13 12 12 11 12 13 12 11 11 12 11 11 10 10
6 7 8 9 10 11 11 12 12 13 13 14 15 15 15 14 13 12 10 10 11 12 13 14 15 15 17 16 14 14 14 13 12 11 11 10 10 10 9 8 7 7 8
6 7 8 9 10 10 11 11 12 12 13 13 14 15 15 13 13 12 7 9 10 12 13 14 15 18 21 17 14 14 14 12 12 11 10 10 9 9 8 7 8 8 7
6 7 8 8 9 10 11 11 12 12 13 13 13 14 15 13 20 20 11 9 10 12 13 14 16 16 21 20 20 19 17 14 13 11 10 11 11 11 10 9 8 6 4
7 7 8 8 9 10 11 11 12 12 13 13 14 14 15 17 22 22 17 11 11 12 13 14 14 15 20 15 16 18 16 17 15 12 11 11 12 12 12 11 9 7 6
7 7 8 8 9 11 11 12 13 12 12 12 14 15 15 16 22 23 20 12 11 11 12 14 15 17 18 19 15 14 14 12 13 10 10 11 11 12 11 11 11 10 10
7 8 8 8 10 11 12 12 12 12 12 12 13 14 15 17 21 23 21 11 9 11 11 12 15 16 22 24 17 16 16 13 13 16 15 13 14 14 11 8 7 6 4
7 7 8 9 10 11 12 13 12 12 12 13 13 14 15 16 20 23 22 9 8 9 11 11 15 19 23 23 16 15 16 16 14 14 13 12 10 10 11 7 6 5 4
6 7 9 9 10 11 11 11 12 11 12 12 13 14 14 16 18 21 20 8 7 9 10 10 11 21 22 21 18 15 18 17 13 12 11 10 9 8 8 7 6 5 5
6 7 9 9 9 8 10 11 11 10 11 12 12 13 12 14 16 17 18 15 11 8 9 10 12 19 20 19 16 20 21 17 11 11 10 10 10 10 10 10 8 7 8
6 7 8 8 8 8 9 10 9 8 8 10 11 11 12 12 14 16 15 15 14 8 8 12 15 17 16 14 18 21 17 12 12 11 11 11 10 11 10 9 9 7 7
7 7 7 7 8 8 7 7 7 7 8 10 11 11 12 12 13 12 11 11 11 8 8 10 12 13 12 14 14 13 12 12 12 11 12 11 11 11 10 10 8 8 5
7 6 6 6 7 7 6 6 7 7 8 10 10 10 11 12 16 20 14 11 10 10 10 7 8 9 10 10 11 11 11 12 12 12 12 12 12 11 11 10 8 7 5
7 6 5 5 5 6 6 6 6 6 10 11 11 12 11 15 20 20 19 17 15 15 10 8 8 9 9 10 10 11 11 12 12 12 12 12 12 12 12 11 10 8 7
8 6 4 4 5 5 6 6 7 6 7 7 10 13 14 17 18 18 18 15 13 13 8 8 8 8 8 8 9 10 10 11 11 12 12 12 12 12 11 11 11 10 8
9 7 6 5 4 5 5 5 6 7 8 7 8 11 14 16 15 16 16 12 10 10 9 9 9 8 8 7 8 8 9 10 11 11 12 12 12 12 12 12 11 11 9
9 7 6 5 4 4 4 5 5 6 6 7 7 8 13 14 13 13 13 8 9 9 9 9 9 8 7 7 6 7 8 8 10 11 11 12 12 12 11 11 11 14 10
9 10 8 5 4 4 4 4 4 5 5 6 6 7 10 10 8 9 9 8 8 9 10 10 9 8 7 6 6 6 6 7 9 9 10 11 11 11 12 12 11 10 9
9 9 11 7 5 4 4 4 3 4 4 5 5 6 11 8 7 8 8 8 9 9 10 10 10 8 7 6 5 5 5 6 7 8 9 10 10 10 11 11 11 10 9
9 8 8 7 5 5 4 4 3 3 4 5 5 6 9 6 6 7 8 8 9 9 9 10 9 8 7 6 5 4 4 4 5 6 8 9 9 10 10 10 11 10 10
10 9 8 7 6 6 5 4 4 3 3 4 5 5 5 6 6 7 8 9 9 9 10 10 10 9 7 6 4 3 3 2 3 4 6 7 8 9 9 10 11 11 11
11 11 10 8 7 6 6 5 4 3 3 3 4 4 5 6 6 7 8 8 9 10 11 11 10 12 12 8 4 3 4 2 1 2 4 6 7 8 8 9 9 11 10
12 11 10 9 8 7 6 6 5 4 3 3 3 4 5 5 6 7 8 8 11 11 13 13 12 13 13 12 6 4 5 6 4 1 2 4 5 7 7 8 9 9 10
13 12 10 9 9 8 7 6 6 5 4 3 3 3 4 5 6 6 7 8 10 11 12 12 15 17 15 11 6 4 7 8 7 4 2 3 5 6 7 7 9 9 10
Wind_Direction
312 314 316 319 320 318 317 319 320 320 322 323 325 327 329 330 330 329 333 335 337 337 339 336 331 324 323 318 312 307 301 297 295 298 300 301 301 297 291 282 276 268 263
306 309 313 317 319 319 320 320 320 321 322 322 324 325 327 329 328 327 332 334 336 337 338 338 337 336 334 330 326 320 316 309 302 301 302 304 304 302 297 288 275 263 256
299 305 310 317 320 321 320 319 319 321 322 323 324 324 324 325 324 323 329 332 334 335 335 335 333 333 334 335 332 329 323 317 308 302 304 306 306 308 306 292 278 262 256
293 300 307 316 320 319 317 317 318 321 322 323 322 320 320 320 320 315 317 328 333 335 334 333 331 331 332 333 334 333 329 322 315 310 308 312 314 318 313 304 292 279 263
285 295 304 311 314 314 315 316 317 319 320 320 319 319 319 319 316 316 304 324 334 337 336 334 331 333 334 336 337 335 332 327 322 318 316 317 323 328 324 314 304 298 269
277 286 293 300 304 307 310 314 316 317 318 319 316 315 317 317 319 327 331 325 335 338 338 336 333 333 335 336 335 336 335 330 328 325 318 319 320 322 322 318 314 306 272
269 278 285 293 299 304 308 311 315 316 315 314 313 314 315 316 320 324 326 324 327 332 335 335 336 335 337 334 337 337 331 330 330 327 316 316 315 319 318 316 316 309 295
264 271 278 286 293 300 307 310 314 315 314 310 311 314 316 316 320 322 321 317 317 325 330 333 335 336 336 345 342 335 331 329 328 323 314 313 312 314 313 307 302 298 284
258 267 275 281 288 296 303 308 314 314 311 309 311 315 316 316 319 319 320 311 315 322 328 333 336 336 341 349 346 338 335 336 335 330 327 323 323 322 326 319 313 303 287
254 269 279 282 286 294 302 309 313 314 310 313 314 317 316 314 315 317 320 313 317 324 331 336 337 342 347 350 348 342 340 340 336 333 331 330 330 327 333 329 314 303 300
253 271 280 286 291 297 301 307 311 313 313 316 318 321 321 322 324 325 330 335 325 330 335 338 339 345 348 350 351 347 345 343 336 333 333 337 339 337 334 328 309 288 288
246 267 280 289 294 294 303 309 314 317 317 320 322 325 328 331 334 336 346 349 345 334 335 338 342 346 348 349 352 352 352 349 343 341 342 346 346 343 336 327 314 288 265
241 263 280 291 295 299 306 312 319 323 322 323 327 330 332 336 340 346 353 352 350 346 337 339 342 347 348 348 351 355 355 352 350 348 347 346 343 339 336 334 328 312 277
239 262 280 291 300 307 310 313 318 322 324 327 333 333 333 338 347 354 359 356 353 353 341 337 342 345 349 351 353 355 355 355 354 349 347 345 346 348 351 350 343 339 327
233 254 274 287 298 307 313 314 316 317 323 329 332 332 334 338 346 354 2 359 358 356 345 343 347 349 352 354 355 356 356 356 356 353 353 353 353 355 356 355 352 349 353
222 241 262 284 298 308 315 317 312 313 326 335 337 338 335 339 344 352 357 358 357 358 355 351 351 350 351 351 352 353 355 357 355 353 356 357 356 356 356 357 359 359 356
213 227 248 268 290 305 314 319 325 327 330 340 347 346 344 346 350 352 355 354 355 358 356 352 349 346 345 345 348 350 352 353 352 354 358 359 357 358 360 1 1 1 358
207 219 234 252 271 287 299 307 314 323 328 337 344 347 347 350 353 356 357 355 356 359 352 348 345 342 340 340 343 346 348 351 355 355 358 359 360 0 2 2 2 1 357
199 207 217 234 250 269 282 294 306 313 319 326 333 344 348 348 352 359 1 359 351 347 345 342 341 338 335 334 335 339 344 350 354 354 359 360 360 1 3 2 1 1 5
199 205 210 222 234 249 262 280 301 315 321 326 335 341 340 345 351 353 354 351 346 341 339 337 336 334 332 329 328 332 338 348 355 357 359 360 0 1 1 1 3 3 4
189 195 205 214 223 231 244 264 288 305 316 322 328 333 342 343 341 342 343 342 340 336 333 332 331 330 329 325 321 322 329 344 354 355 356 359 360 2 2 3 4 7 8
183 186 192 203 209 216 228 244 267 288 308 317 325 331 340 342 339 338 337 336 334 330 328 326 326 327 326 322 313 308 319 335 350 355 356 358 0 4 6 9 9 11 16
183 185 190 196 202 209 217 228 245 268 294 312 321 329 337 339 336 334 332 332 331 330 329 328 327 328 328 321 299 273 283 315 343 351 352 358 3 7 11 13 15 18 23
184 187 190 192 196 202 208 215 227 248 275 298 313 325 331 331 328 329 330 329 330 330 331 330 328 329 331 329 304 244 234 236 272 1 357 3 9 10 15 17 21 22 26
184 187 190 193 195 198 201 207 216 230 250 276 300 316 323 325 326 327 329 330 331 330 331 332 332 333 331 328 314 241 215 203 190 129 24 15 20 18 20 24 28 34 36
185 187 190 191 194 196 198 201 206 215 231 250 276 300 311 317 321 324 327 330 331 329 330 331 332 334 331 327 313 227 202 188 179 163 98 41 32 30 26 32 35 40 46
Height
1547 1543 1538 1533 1528 1522 1517 1511 1505 1499 1493 1487 1482 1476 1470 1464 1458 1452 1446 1439 1433 1426 1420 1414 1408 1402 1397 1392 1388 1384 1380 1376 1371 1365 1362 1358 1355 1352 1350 1349 1349 1349 1351
1544 1540 1535 1530 1525 1520 1515 1509 1502 1496 1491 1485 1479 1473 1467 1462 1456 1450 1444 1438 1431 1425 1419 1413 1407 1402 1396 1391 1386 1382 1377 1373 1369 1362 1357 1353 1350 1347 1344 1343 1344 1345 1346
1540 1537 1532 1528 1523 1518 1512 1506 1500 1494 1488 1482 1476 1470 1465 1459 1454 1449 1443 1437 1430 1424 1418 1412 1406 1401 1395 1390 1385 1380 1374 1370 1365 1360 1354 1350 1345 1343 1340 1339 1339 1340 1342
1537 1533 1529 1525 1520 1515 1510 1504 1498 1492 1486 1479 1473 1467 1462 1456 1451 1446 1441 1435 1429 1423 1417 1411 1405 1400 1395 1389 1383 1378 1372 1367 1362 1357 1352 1347 1343 1340 1338 1336 1336 1336 1338
1534 1530 1527 1522 1518 1512 1507 1501 1496 1490 1483 1477 1471 1464 1459 1454 1448 1444 1438 1433 1427 1421 1415 1409 1404 1399 1393 1388 1382 1376 1370 1364 1359 1354 1350 1345 1341 1337 1335 1333 1333 1333 1334
1530 1527 1524 1519 1515 1510 1504 1499 1493 1487 1481 1475 1468 1462 1456 1451 1446 1442 1437 1431 1426 1420 1414 1408 1402 1397 1391 1385 1379 1373 1368 1362 1357 1352 1348 1344 1340 1336 1334 1332 1331 1331 1332
1527 1524 1521 1517 1512 1507 1501 1496 1490 1485 1479 1473 1466 1460 1454 1448 1443 1439 1434 1429 1424 1418 1412 1406 1401 1395 1389 1382 1376 1370 1364 1360 1355 1351 1346 1342 1338 1335 1332 1330 1329 1328 1328
1523 1521 1518 1514 1509 1504 1499 1493 1488 1482 1476 1470 1464 1459 1453 1447 1441 1436 1431 1426 1421 1416 1411 1405 1400 1394 1387 1381 1373 1367 1362 1356 1351 1347 1343 1339 1335 1332 1330 1328 1327 1326 1326
1520 1517 1514 1510 1506 1501 1495 1490 1485 1479 1474 1468 1463 1457 1451 1445 1439 1433 1428 1422 1418 1413 1409 1404 1398 1392 1386 1379 1372 1366 1360 1354 1348 1343 1339 1335 1332 1329 1327 1326 1326 1326 1326
1516 1514 1511 1507 1503 1498 1493 1488 1482 1477 1471 1466 1461 1456 1450 1444 1437 1431 1425 1420 1415 1411 1407 1402 1397 1391 1385 1378 1371 1365 1358 1352 1345 1340 1336 1332 1329 1326 1325 1324 1324 1324 1324
1512 1510 1508 1504 1500 1495 1490 1485 1480 1474 1469 1464 1459 1454 1449 1443 1437 1430 1425 1419 1414 1409 1405 1400 1395 1390 1383 1377 1371 1365 1359 1352 1345 1339 1334 1331 1327 1325 1323 1322 1322 1323 1324
1508 1507 1504 1501 1497 1493 1488 1483 1478 1472 1466 1462 1457 1452 1447 1442 1436 1430 1425 1419 1414 1409 1404 1399 1394 1388 1382 1376 1371 1365 1358 1352 1345 1340 1335 1330 1326 1323 1322 1321 1321 1322 1323
1504 1503 1501 1498 1495 1490 1486 1481 1475 1470 1464 1460 1455 1451 1446 1441 1435 1430 1424 1419 1413 1408 1403 1398 1393 1387 1382 1376 1371 1365 1358 1352 1347 1341 1336 1331 1327 1324 1322 1321 1321 1322 1323
1500 1499 1497 1495 1492 1489 1484 1479 1473 1468 1462 1458 1454 1449 1445 1440 1435 1430 1424 1419 1413 1408 1402 1397 1392 1387 1383 1378 1372 1366 1360 1356 1350 1344 1339 1334 1329 1325 1323 1321 1321 1322 1323
1496 1495 1494 1492 1489 1486 1483 1478 1473 1467 1462 1458 1453 1448 1444 1439 1436 1431 1426 1420 1415 1409 1403 1398 1393 1389 1384 1379 1374 1369 1363 1358 1353 1347 1342 1336 1331 1328 1325 1323 1323 1323 1325
1491 1491 1490 1489 1487 1484 1481 1477 1473 1468 1462 1457 1452 1447 1443 1440 1435 1430 1425 1420 1415 1410 1405 1400 1395 1390 1386 1381 1377 1372 1367 1362 1356 1351 1346 1341 1336 1331 1328 1326 1325 1326 1327
1486 1487 1486 1485 1484 1482 1479 1475 1472 1468 1462 1457 1451 1446 1442 1437 1433 1429 1424 1420 1416 1411 1406 1401 1397 1392 1388 1384 1380 1375 1371 1366 1360 1355 1350 1345 1340 1336 1333 1330 1329 1328 1329
1481 1482 1482 1481 1480 1478 1476 1473 1469 1465 1461 1456 1451 1446 1441 1436 1432 1428 1424 1420 1416 1411 1407 1403 1399 1394 1390 1386 1382 1378 1374 1370 1365 1360 1355 1350 1345 1341 1338 1335 1333 1331 1331
1476 1477 1477 1477 1476 1475 1473 1471 1468 1464 1460 1455 1450 1446 1441 1436 1432 1428 1424 1420 1416 1412 1409 1405 1401 1396 1392 1388 1384 1381 1377 1373 1369 1364 1360 1355 1350 1346 1343 1340 1338 1336 1335
1470 1471 1472 1473 1472 1472 1470 1468 1466 1462 1459 1454 1450 1445 1440 1435 1431 1428 1424 1420 1417 1414 1410 1406 1402 1398 1394 1390 1386 1383 1380 1377 1373 1369 1365 1361 1356 1352 1348 1345 1342 1340 1339
1464 1466 1467 1468 1468 1468 1467 1466 1463 1460 1457 1453 1449 1444 1439 1435 1431 1427 1424 1421 1418 1414 1411 1407 1403 1399 1395 1392 1388 1385 1382 1379 1376 1373 1370 1366 1362 1358 1354 1350 1348 1345 1344
1458 1460 1461 1463 1463 1464 1463 1463 1461 1458 1455 1452 1448 1444 1440 1435 1431 1427 1424 1421 1418 1415 1412 1408 1404 1400 1396 1393 1390 1387 1384 1382 1379 1377 1374 1370 1367 1363 1360 1356 1352 1350 1348
1452 1454 1456 1457 1459 1459 1460 1459 1458 1456 1453 1451 1447 1443 1439 1435 1431 1427 1424 1421 1418 1415 1412 1408 1405 1401 1397 1394 1390 1388 1386 1384 1382 1379 1377 1374 1371 1368 1365 1361 1358 1355 1353
1445 1448 1450 1452 1453 1455 1455 1455 1455 1453 1451 1449 1446 1442 1439 1435 1431 1427 1424 1421 1418 1415 1412 1409 1405 1401 1398 1394 1391 1388 1386 1385 1383 1382 1380 1377 1375 1372 1369 1366 1364 1361 1359
1438 1441 1444 1446 1448 1449 1451 1451 1451 1450 1448 1446 1444 1441 1437 1434 1430 1426 1423 1420 1418 1415 1412 1409 1405 1402 1398 1394 1391 1389 1387 1385 1384 1383 1382 1380 1378 1376 1373 1371 1368 1366 1364
1431 1435 1437 1440 1442 1444 1446 1447 1447 1446 1445 1444 1441 1439 1436 1433 1429 1426 1422 1419 1417 1414 1412 1408 1405 1402 1398 1394 1391 1389 1387 1385 1385 1385 1384 1383 1381 1379 1377 1375 1373 1371 1370